GW2016 Weather Reports


time (UTC)temp
C
wind
direction
speed
KPH
gust
KPH
rain 1hr
cm
rain 24hr
cm
rain mn
cm
humidity
%
barometer
mb
20260507224604 9 78 4.8 12.9 0.00 0.00 0.00 95 1015.9
20260507223604 9 96 4.8 11.3 0.00 0.00 0.00 94 1015.9
20260507222605 9 74 4.8 14.5 0.00 0.00 0.00 94 1016.0
20260507222105 9 80 4.8 9.7 0.00 0.00 0.00 94 1016.0
20260507221605 9 91 4.8 11.3 0.00 0.00 0.00 94 1016.1
20260507221105 8 70 4.8 11.3 0.00 0.00 0.00 94 1016.1
20260507220605 8 71 8.0 14.5 0.00 0.00 0.00 94 1016.0
20260507220104 8 106 4.8 12.9 0.00 0.00 0.00 94 1016.1
20260507215604 8 96 4.8 9.7 0.00 0.00 0.00 94 1016.2
20260507215104 8 118 4.8 11.3 0.00 0.00 0.00 94 1016.1
20260507214604 8 135 4.8 9.7 0.00 0.00 0.00 93 1016.0
20260507214104 8 100 4.8 9.7 0.00 0.00 0.00 93 1016.1
20260507213605 8 106 4.8 11.3 0.00 0.00 0.00 93 1016.2
20260507212605 8 79 4.8 11.3 0.00 0.00 0.00 93 1016.1
20260507212105 9 87 4.8 11.3 0.00 0.00 0.00 93 1016.1
20260507211604 8 75 3.2 11.3 0.00 0.00 0.00 92 1016.1
20260507211104 9 66 4.8 12.9 0.00 0.00 0.00 92 1016.2
20260507210104 9 94 4.8 12.9 0.00 0.00 0.00 92 1016.0
20260507205604 9 58 4.8 11.3 0.00 0.00 0.00 92 1015.9
20260507205104 9 75 3.2 9.7 0.00 0.00 0.00 91 1016.0
20260507204605 9 53 4.8 11.3 0.00 0.00 0.00 91 1016.0
20260507204104 9 58 4.8 12.9 0.00 0.00 0.00 91 1016.0
20260507203604 9 55 3.2 12.9 0.00 0.00 0.00 91 1015.9
20260507203104 9 55 4.8 11.3 0.00 0.00 0.00 91 1015.9
20260507202604 9 91 4.8 9.7 0.00 0.00 0.00 90 1015.9
20260507202104 9 104 4.8 14.5 0.00 0.00 0.00 90 1015.8
20260507201604 9 72 3.2 11.3 0.00 0.00 0.00 90 1015.7
20260507201105 10 92 4.8 12.9 0.00 0.00 0.00 89 1015.9
20260507200604 10 70 4.8 11.3 0.00 0.00 0.00 89 1015.6
20260507200105 10 63 3.2 9.7 0.00 0.00 0.00 89 1015.6
20260507195604 10 78 4.8 12.9 0.00 0.00 0.00 89 1015.8
20260507195104 10 71 4.8 11.3 0.00 0.00 0.00 89 1015.6
20260507194104 10 116 6.4 16.1 0.00 0.00 0.00 88 1015.5
20260507193605 10 89 6.4 12.9 0.00 0.00 0.00 88 1015.4
20260507193105 10 90 4.8 11.3 0.00 0.00 0.00 87 1015.6
20260507192605 11 75 4.8 12.9 0.00 0.00 0.00 87 1015.5
20260507192104 11 71 4.8 16.1 0.00 0.00 0.00 87 1015.5
20260507191604 11 81 4.8 12.9 0.00 0.00 0.00 87 1015.3
20260507191104 11 101 6.4 14.5 0.00 0.00 0.00 87 1015.5
20260507190104 11 75 9.7 16.1 0.00 0.00 0.00 86 1015.2
20260507185604 11 78 8.0 20.9 0.00 0.00 0.00 85 1015.3
20260507185104 11 73 11.3 24.1 0.00 0.00 0.00 85 1015.5
20260507184604 11 68 9.7 20.9 0.00 0.00 0.00 85 1015.3
20260507184104 11 74 8.0 19.3 0.00 0.00 0.00 85 1015.3
20260507183604 11 41 8.0 19.3 0.00 0.00 0.00 84 1015.1
20260507183105 11 87 8.0 19.3 0.00 0.00 0.00 84 1015.2
20260507182105 11 83 8.0 20.9 0.00 0.00 0.00 84 1015.3
20260507181604 11 76 6.4 24.1 0.00 0.00 0.00 83 1015.1
20260507180104 11 61 12.9 27.4 0.00 0.00 0.00 83 1014.9
20260507175604 11 77 14.5 27.4 0.00 0.00 0.00 83 1015.1
20260507175104 12 72 12.9 25.7 0.00 0.00 0.00 83 1015.3
20260507174105 12 83 9.7 35.4 0.00 0.00 0.00 83 1015.1
20260507173605 12 80 9.7 22.5 0.00 0.00 0.00 83 1015.1
20260507173105 12 72 11.3 29.0 0.00 0.00 0.00 83 1015.2
20260507172605 12 69 9.7 27.4 0.00 0.00 0.00 83 1015.4
20260507172104 12 85 11.3 32.2 0.00 0.00 0.00 83 1015.2
20260507171604 12 64 11.3 29.0 0.00 0.00 0.00 82 1015.2
20260507171104 12 84 9.7 22.5 0.00 0.00 0.00 82 1015.3
20260507170604 12 85 12.9 32.2 0.00 0.00 0.00 82 1015.1
20260507165604 12 81 14.5 33.8 0.00 0.00 0.00 82 1015.2
20260507165105 12 88 12.9 24.1 0.00 0.00 0.00 82 1015.2
20260507164605 12 83 11.3 25.7 0.00 0.00 0.00 82 1015.2
20260507164104 12 79 12.9 24.1 0.00 0.00 0.00 82 1015.3
20260507163604 12 87 11.3 25.7 0.00 0.00 0.00 82 1015.3
20260507163104 12 124 9.7 24.1 0.00 0.00 0.00 82 1015.3
20260507162604 12 92 12.9 32.2 0.00 0.00 0.00 82 1015.4
20260507162104 12 95 14.5 32.2 0.00 0.00 0.00 82 1015.2
20260507161104 12 60 12.9 27.4 0.00 0.00 0.00 82 1015.3
20260507160605 12 92 12.9 32.2 0.00 0.00 0.00 82 1015.2
20260507160104 12 99 16.1 38.6 0.00 0.00 0.00 82 1015.3
20260507155604 12 93 8.0 25.7 0.00 0.00 0.00 82 1015.1
20260507155106 12 68 11.3 29.0 0.00 0.00 0.00 82 1015.1
20260507154604 12 85 9.7 33.8 0.00 0.00 0.00 82 1015.3
20260507154105 12 66 14.5 32.2 0.00 0.00 0.00 82 1015.3
20260507153104 12 87 11.3 27.4 0.00 0.00 0.00 82 1015.2
20260507152604 12 63 9.7 37.0 0.00 0.00 0.00 82 1015.2
20260507151604 12 90 11.3 33.8 0.00 0.00 0.00 82 1015.1
20260507150604 12 91 14.5 35.4 0.00 0.00 0.00 81 1015.3
20260507145104 12 86 12.9 37.0 0.00 0.00 0.00 78 1015.2
20260507144604 13 80 14.5 32.2 0.00 0.00 0.00 77 1015.3
20260507144104 13 97 11.3 32.2 0.00 0.00 0.00 77 1015.3
20260507143104 13 71 14.5 37.0 0.00 0.00 0.00 76 1015.3
20260507142604 13 78 12.9 32.2 0.00 0.00 0.00 75 1015.2
20260507142104 13 70 14.5 35.4 0.00 0.00 0.00 76 1015.2
20260507141604 13 85 12.9 27.4 0.00 0.00 0.00 77 1015.5
20260507141104 13 73 14.5 32.2 0.00 0.00 0.00 76 1015.5
20260507140104 13 101 12.9 33.8 0.00 0.00 0.00 76 1015.4
20260507135605 13 80 11.3 38.6 0.00 0.00 0.00 76 1015.5
20260507135104 13 86 9.7 40.2 0.00 0.00 0.00 75 1015.5
20260507134605 13 101 12.9 40.2 0.00 0.00 0.00 75 1015.4
20260507133604 13 80 12.9 29.0 0.00 0.00 0.00 75 1015.5
20260507133104 14 50 14.5 35.4 0.00 0.00 0.00 74 1015.4
20260507132604 14 77 11.3 33.8 0.00 0.00 0.00 73 1015.6
20260507132104 14 91 12.9 33.8 0.00 0.00 0.00 72 1015.7
20260507131105 14 62 11.3 27.4 0.00 0.00 0.00 72 1015.5
20260507130604 14 84 12.9 32.2 0.00 0.00 0.00 73 1015.5
20260507130104 14 96 9.7 38.6 0.00 0.00 0.00 72 1015.6
20260507125604 15 61 11.3 38.6 0.00 0.00 0.00 72 1015.7
20260507125104 14 96 11.3 35.4 0.00 0.00 0.00 73 1015.4
20260507124604 14 90 16.1 46.7 0.00 0.00 0.00 72 1015.6
20260507124104 14 76 11.3 32.2 0.00 0.00 0.00 72 1015.6
20260507123104 14 73 11.3 25.7 0.00 0.00 0.00 73 1015.4
20260507122604 14 61 11.3 27.4 0.00 0.00 0.00 74 1015.6
20260507122104 13 92 14.5 29.0 0.00 0.00 0.00 76 1015.5
20260507121604 13 63 11.3 32.2 0.00 0.00 0.00 76 1015.4
20260507120104 14 56 14.5 29.0 0.00 0.00 0.00 73 1015.6
20260507115604 13 91 11.3 33.8 0.00 0.00 0.00 76 1015.7
20260507114604 13 95 14.5 32.2 0.00 0.00 0.00 75 1015.7
20260507114104 13 73 9.7 22.5 0.00 0.00 0.00 74 1015.6
20260507113604 13 77 11.3 38.6 0.00 0.00 0.00 74 1015.7
20260507113104 13 83 9.7 27.4 0.00 0.00 0.00 74 1015.7
20260507112605 13 68 12.9 25.7 0.00 0.00 0.00 74 1015.6
20260507112105 13 94 11.3 25.7 0.00 0.00 0.00 73 1015.6
20260507111604 13 78 11.3 25.7 0.00 0.00 0.00 73 1015.8
20260507111104 13 108 16.1 32.2 0.00 0.00 0.00 72 1015.5
20260507110604 13 95 11.3 27.4 0.00 0.00 0.00 72 1015.8
20260507110104 13 117 9.7 25.7 0.00 0.00 0.00 73 1015.7
20260507105604 13 90 9.7 32.2 0.00 0.00 0.00 74 1015.9
20260507105105 14 102 11.3 32.2 0.00 0.00 0.00 71 1015.6
20260507104604 13 111 9.7 25.7 0.00 0.00 0.00 72 1015.7
20260507104104 13 109 8.0 25.7 0.00 0.00 0.00 74 1015.7
20260507103604 13 80 11.3 25.7 0.00 0.00 0.00 73 1015.7
20260507103104 13 106 9.7 27.4 0.00 0.00 0.00 72 1015.8
20260507102604 13 120 11.3 29.0 0.00 0.00 0.00 73 1015.9
20260507102105 13 74 11.3 29.0 0.00 0.00 0.00 73 1015.6
20260507101105 13 110 11.3 27.4 0.00 0.00 0.00 71 1015.8
20260507100605 13 82 9.7 25.7 0.00 0.00 0.00 72 1015.7
20260507100104 14 86 9.7 32.2 0.00 0.00 0.00 72 1015.8
20260507095605 14 107 8.0 32.2 0.00 0.00 0.00 72 1015.7
20260507095104 14 96 11.3 25.7 0.00 0.00 0.00 72 1015.7
20260507093604 13 103 9.7 22.5 0.00 0.00 0.00 73 1015.6
20260507093104 13 105 11.3 25.7 0.00 0.00 0.00 73 1015.6
20260507092604 13 104 9.7 32.2 0.00 0.00 0.00 72 1015.6
20260507092104 13 112 9.7 19.3 0.00 0.00 0.00 73 1015.6
20260507091604 13 100 11.3 24.1 0.00 0.00 0.00 73 1015.4
20260507091105 12 79 9.7 25.7 0.00 0.00 0.00 73 1015.4
20260507090604 12 127 9.7 20.9 0.00 0.00 0.00 74 1015.5
20260507090105 12 105 9.7 22.5 0.00 0.00 0.00 74 1015.4
20260507085604 12 95 8.0 24.1 0.00 0.00 0.00 74 1015.4
20260507085104 12 85 9.7 22.5 0.00 0.00 0.00 72 1015.4
20260507084604 12 99 8.0 19.3 0.00 0.00 0.00 73 1015.3
20260507084104 12 89 6.4 19.3 0.00 0.00 0.00 73 1015.4
20260507083604 12 90 8.0 20.9 0.00 0.00 0.00 75 1015.4
20260507083104 12 46 6.4 19.3 0.00 0.00 0.00 76 1015.3
20260507082104 12 79 8.0 14.5 0.00 0.00 0.00 77 1015.3
20260507081104 11 88 8.0 14.5 0.00 0.00 0.00 77 1015.4
20260507080604 11 70 8.0 16.1 0.00 0.00 0.00 78 1015.2
20260507075604 11 73 9.7 19.3 0.00 0.00 0.00 79 1015.4
20260507075104 11 82 8.0 14.5 0.00 0.00 0.00 80 1015.3
20260507074104 11 77 8.0 24.1 0.00 0.00 0.00 81 1015.1
20260507073604 11 34 11.3 27.4 0.00 0.00 0.00 81 1015.1
20260507073104 11 57 9.7 22.5 0.00 0.00 0.00 82 1015.2
20260507072604 11 46 8.0 22.5 0.00 0.00 0.00 83 1015.1
20260507071604 10 53 8.0 22.5 0.00 0.00 0.00 84 1015.2
20260507071104 10 49 8.0 16.1 0.00 0.00 0.00 84 1015.0
20260507070604 10 28 4.8 14.5 0.00 0.00 0.00 84 1015.1
20260507070104 10 71 8.0 27.4 0.00 0.00 0.00 84 1015.1
20260507065604 10 50 9.7 20.9 0.00 0.00 0.00 85 1015.1
20260507064604 10 18 8.0 25.7 0.00 0.00 0.00 85 1015.0
20260507063604 10 74 4.8 19.3 0.00 0.00 0.00 86 1014.9
20260507062603 10 83 8.0 16.1 0.00 0.00 0.00 86 1014.7
20260507062104 10 64 8.0 19.3 0.00 0.00 0.00 86 1014.8
20260507061604 9 96 8.0 24.1 0.00 0.00 0.00 87 1014.9
20260507061104 9 55 9.7 22.5 0.00 0.00 0.00 87 1014.7
20260507060604 9 20 6.4 19.3 0.00 0.00 0.00 87 1014.5
20260507060104 9 53 9.7 24.1 0.00 0.00 0.00 87 1014.6
20260507054604 9 24 9.7 19.3 0.00 0.00 0.00 87 1014.7
20260507054104 9 13 8.0 16.1 0.00 0.00 0.00 87 1014.7
20260507053604 9 52 9.7 16.1 0.00 0.00 0.00 88 1014.7
20260507053104 9 32 8.0 25.7 0.00 0.00 0.00 88 1014.6
20260507052604 9 24 8.0 19.3 0.00 0.00 0.00 88 1014.5
20260507051604 9 0 9.7 22.5 0.00 0.00 0.00 88 1014.5
20260507051104 9 16 12.9 27.4 0.00 0.00 0.00 88 1014.6
20260507050604 9 46 11.3 20.9 0.00 0.00 0.00 88 1014.5
20260507050103 9 31 9.7 20.9 0.00 0.00 0.00 88 1014.3
20260507045604 9 125 8.0 14.5 0.00 0.00 0.00 88 1014.4
20260507045104 8 129 8.0 19.3 0.00 0.00 0.00 88 1014.5
20260507044604 8 63 8.0 16.1 0.00 0.00 0.00 88 1014.3
20260507043604 8 76 6.4 16.1 0.00 0.00 0.00 88 1014.3
20260507043104 8 149 8.0 14.5 0.00 0.00 0.00 88 1014.3
20260507042104 8 37 4.8 14.5 0.00 0.00 0.00 88 1014.1
20260507041604 8 37 4.8 19.3 0.00 0.00 0.00 88 1013.9
20260507041105 9 113 6.4 16.1 0.00 0.00 0.00 88 1014.0
20260507040604 9 21 4.8 20.9 0.00 0.00 0.00 88 1014.0
20260507035604 9 14 11.3 20.9 0.00 0.00 0.00 88 1014.0
20260507035104 9 51 8.0 16.1 0.00 0.00 0.00 88 1014.0
20260507034603 9 52 4.8 14.5 0.00 0.00 0.00 88 1014.0
20260507034104 9 49 8.0 25.7 0.00 0.00 0.00 88 1014.0
20260507033604 8 49 9.7 19.3 0.00 0.00 0.00 88 1014.1
20260507032604 8 111 4.8 16.1 0.00 0.00 0.00 88 1013.9
20260507032103 8 54 4.8 14.5 0.00 0.00 0.00 88 1014.1
20260507031604 8 58 4.8 14.5 0.00 0.00 0.00 88 1014.1
20260507031104 8 18 8.0 14.5 0.00 0.00 0.00 88 1014.0
20260507030604 8 110 8.0 14.5 0.00 0.00 0.00 88 1014.0
20260507030104 8 112 4.8 11.3 0.00 0.00 0.00 88 1013.9
20260507025603 8 125 4.8 11.3 0.00 0.00 0.00 88 1014.0
20260507024104 8 37 3.2 12.9 0.00 0.00 0.00 88 1014.0
20260507023104 8 103 3.2 8.0 0.00 0.00 0.00 88 1013.8
20260507022604 8 130 4.8 14.5 0.00 0.00 0.00 88 1013.9
20260507022104 8 49 4.8 11.3 0.00 0.00 0.00 88 1013.9
20260507021104 8 52 6.4 16.1 0.00 0.00 0.00 88 1013.8
20260507020604 8 48 4.8 11.3 0.00 0.00 0.00 88 1013.9
20260507020104 9 86 4.8 11.3 0.00 0.00 0.00 88 1013.7
20260507015604 9 105 4.8 11.3 0.00 0.00 0.00 88 1013.9
20260507015104 9 131 4.8 11.3 0.00 0.00 0.00 88 1013.7
20260507014604 9 77 4.8 9.7 0.00 0.00 0.00 88 1013.7
20260507014104 9 59 4.8 9.7 0.00 0.00 0.00 88 1013.9
20260507013603 9 60 4.8 9.7 0.00 0.00 0.00 87 1013.8
20260507013104 9 56 1.6 9.7 0.00 0.00 0.00 87 1013.9
20260507012104 9 117 4.8 9.7 0.00 0.00 0.00 87 1013.8
20260507011604 9 112 3.2 11.3 0.00 0.00 0.00 87 1014.0
20260507011104 9 132 4.8 8.0 0.00 0.00 0.00 87 1013.9
20260507010604 9 132 4.8 9.7 0.00 0.00 0.00 87 1014.0
20260507010104 9 134 6.4 9.7 0.00 0.00 0.00 87 1013.8
20260507005603 9 114 3.2 9.7 0.00 0.00 0.00 87 1014.0
20260507005104 9 68 4.8 9.7 0.00 0.00 0.00 86 1013.9
20260507004604 9 88 3.2 9.7 0.00 0.00 0.00 86 1013.8
20260507004104 9 78 4.8 9.7 0.00 0.00 0.00 86 1013.8
20260507003604 9 128 4.8 11.3 0.00 0.00 0.00 86 1013.9
20260507003104 9 98 3.2 9.7 0.00 0.00 0.00 86 1013.9
20260507002604 9 73 1.6 9.7 0.00 0.00 0.00 86 1013.9
20260507002104 9 73 4.8 12.9 0.00 0.00 0.00 86 1013.8
20260507001604 9 71 3.2 14.5 0.00 0.00 0.00 86 1013.8
20260507001104 9 100 4.8 9.7 0.00 0.00 0.00 86 1013.8
20260507000603 9 125 3.2 9.7 0.00 0.00 0.00 86 1013.9
20260507000104 9 129 3.2 9.7 0.00 0.00 0.00 86 1013.7
20260506235604 9 70 6.4 12.9 0.00 0.00 0.00 86 1013.8
20260506235103 9 65 4.8 14.5 0.00 0.00 0.00 86 1013.8
20260506234604 9 104 4.8 14.5 0.00 0.00 0.00 86 1013.7
20260506234103 9 42 4.8 14.5 0.00 0.00 0.00 86 1013.9
20260506233604 9 100 4.8 12.9 0.00 0.00 0.00 86 1013.7
20260506233104 9 44 4.8 14.5 0.00 0.00 0.00 86 1013.8
20260506232604 10 98 6.4 11.3 0.00 0.00 0.00 86 1013.9
20260506232104 10 59 4.8 12.9 0.00 0.00 0.00 86 1013.9
20260506231604 10 120 4.8 12.9 0.00 0.00 0.00 86 1013.7
20260506231106 10 78 3.2 9.7 0.00 0.00 0.00 86 1013.7
20260506230604 10 104 1.6 11.3 0.00 0.00 0.00 86 1013.6
20260506230104 10 67 3.2 11.3 0.00 0.00 0.00 86 1013.7
20260506225604 10 90 6.4 14.5 0.00 0.00 0.00 86 1013.6
20260506225104 10 82 4.8 11.3 0.00 0.00 0.00 86 1013.7